Location: Migueláñez
(41.1215°N, 4.3641°W)
Time: 03:53:25
(UTC+00:00)

Daily predictions for brighter satellites

Satellite Brightness Start Highest point End
(mag) Time Altitude Azimuth Time Altitude Azimuth Time Altitude Azimuth
Cosmos 1980 Rocket 4.3 03:23:21 22° ENE 03:23:21 22° ENE 03:26:03 10° NE
ATLAS 3B R/B 4.2 03:27:51 30° N 03:29:59 35° NE 03:36:55 10° ESE
ATLAS 2AS CENTAUR R/B 3.5 03:47:22 45° NNE 03:47:22 45° NNE 03:52:03 10° NNE
Lacrosse 4 Rocket 4.3 03:49:01 14° ENE 03:49:01 14° ENE 03:50:10 10° E
Cosmos 2263 Rocket 3.5 04:00:00 32° NNE 04:01:16 36° ENE 04:06:24 10° SE
Cosmos 2227 Rocket 3.7 04:13:54 27° SSE 04:13:54 27° SSE 04:16:20 10° SSE
Cosmos 2285 Rocket 4.0 04:11:34 74° NE 04:11:49 76° ENE 04:18:12 10° SSE
Gbstr 26 Del rocket 4.2 04:22:25 42° ESE 04:22:25 42° ESE 04:26:34 10° ENE
DELTA 2 R/B (1) 3.5 04:35:55 77° S 04:35:59 77° S 04:41:33 10° E
IRAS Rocket 4.2 04:30:50 10° NNE 04:36:22 82° ESE 04:40:09 21° SSW
Cosmos 2219 3.2 04:35:43 50° NNW 04:37:15 80° ENE 04:42:54 10° SSE
S3M 3.9 04:31:19 10° N 04:37:36 83° E 04:43:45 10° S
BREEZE-M DEB (TANK) 4.4 04:39:15 17° E 04:39:15 17° E 04:40:03 10° ENE
Cosmos 1417 Rocket 4.3 04:35:12 10° N 04:41:20 78° W 04:47:26 10° S
SJ 16-02 3.6 04:46:33 14° S 04:46:33 14° S 04:47:08 10° S
BREEZE-M DEB (TANK) 4.0 04:45:30 32° NE 04:45:30 32° NE 04:49:29 10° E
H-2A R/B 3.0 04:40:23 10° N 04:43:10 32° N 04:43:10 32° N
Meteor 1-24 Rocket 3.5 04:43:56 10° S 04:49:28 84° W 04:54:52 10° N
SL-8 R/B 3.6 04:49:43 75° NNW 04:49:43 75° NNW 04:54:22 10° ENE
ARGOS 3.3 04:51:03 10° NNE 04:56:29 72° ESE 05:01:53 10° S
Thor Agena Rocket 3.4 04:52:51 10° NNE 04:58:04 88° WNW 05:03:12 10° SSW
Meteor 2-20 4.3 04:54:32 10° N 05:00:40 77° W 05:06:44 10° S
Meteor 2-20 Rocket 4.4 04:55:39 10° N 05:01:32 77° E 05:07:15 10° SSE
Cosmos 1980 Rocket 2.5 05:05:10 42° WNW 05:05:10 42° WNW 05:10:29 10° N
Cosmos 2369 3.7 05:07:06 35° WSW 05:09:15 56° WNW 05:14:49 10° NNE
IRS-1D 4.1 05:06:18 10° N 05:09:55 35° NW 05:09:55 35° NW
USA 281 3.1 05:04:24 10° SSE 05:10:57 82° WSW 05:17:35 10° NNW
Cosmos 1378 Rocket 3.8 05:08:54 10° S 05:13:17 69° E 05:17:39 10° NNE
NOSS 3-1 (A) 4.5 05:11:12 29° WNW 05:14:55 46° WSW 05:23:28 10° S
Atlas Centaur 2 3.2 05:14:33 16° SSW 05:15:13 17° S 05:17:40 10° SSE
Cosmos 1674 Rocket 4.2 05:11:06 10° S 05:15:18 56° E 05:19:32 10° NNE
ATLAS CENTAUR R/B 3.5 05:18:24 11° N 05:18:24 11° N 05:18:46 10° N
Cosmos 44 Rocket 4.4 05:18:52 24° SW 05:18:52 24° SW 05:21:39 10° S
Meteor 2-5 Rocket 3.9 05:12:19 10° SSW 05:17:54 50° WNW 05:23:24 10° N
ARIANE 6 FM1 Upper Stage 2.9 05:16:08 16° SSW 05:19:27 71° ESE 05:23:41 10° NE
FengYun 1-2 T 4.4 05:13:52 10° NNE 05:19:32 80° ESE 05:25:11 10° S
Cosmos 371 Rocket 3.2 05:16:34 13° NNW 05:20:53 89° W 05:25:42 10° SSE
ATLAS 3B R/B 2.9 05:15:09 17° NW 05:21:20 67° WSW 05:28:50 10° SSE
Cosmos 1992 Rocket 3.9 05:16:42 10° SSW 05:21:53 71° WNW 05:27:08 10° NNE
COSMO-SKYMED 1 2.9 05:18:11 10° SSE 05:22:28 65° ENE 05:26:47 10° N
Okean 2 Rocket 3.8 05:18:22 10° N 05:22:47 55° E 05:27:07 10° SSE
Cosmos 1697 Rocket 4.4 05:24:29 15° NNW 05:24:29 15° NNW 05:26:46 10° N
Cosmos 1939 Rocket 3.8 05:22:16 10° N 05:24:25 28° NNW 05:24:25 28° NNW
Lacrosse 4 Rocket 1.5 05:24:50 39° WNW 05:25:49 49° WSW 05:29:45 10° S
NOAA 12 4.4 05:23:01 10° NNE 05:28:22 70° ESE 05:33:38 10° S
Cosmos 2242 Rocket 4.3 05:31:42 30° WNW 05:31:42 30° WNW 05:35:21 10° NNW
Cosmos 1818 4.5 05:32:02 26° WNW 05:33:17 29° NW 05:38:01 10° NNE
Cosmos 2098 Rocket 4.0 05:30:45 10° N 05:34:09 36° ENE 05:37:05 10° SE
ATLAS 2AS CENTAUR R/B 4.0 05:34:49 19° WNW 05:36:58 22° NNW 05:42:13 10° NNE
SJ-11-01 4.3 05:33:55 10° NNE 05:38:35 81° ESE 05:43:15 10° S
Cosmos 2315 Rocket 4.2 05:33:21 10° NNW 05:39:24 47° W 05:45:23 10° SSW
USA 59 Rocket 0.8 05:39:52 11° NNW 05:43:36 57° NE 05:49:06 10° SE
Cosmos 2237 4.1 05:39:10 10° SSW 05:44:49 70° WNW 05:50:31 10° NNE
Cosmos 2263 Rocket 2.9 05:41:46 18° NW 05:45:03 32° WSW 05:49:57 10° SSW
CBERS-1 4.2 05:43:49 10° N 05:48:46 50° WNW 05:53:41 10° SW
Cosmos 2082 4.2 05:45:00 13° NW 05:49:34 37° WSW 05:54:42 10° S
Cosmos 2360 Rocket 3.1 05:46:49 10° S 05:52:14 52° ESE 05:57:41 10° NNE
Cosmos 1437 Rocket 2.9 05:49:02 10° SSW 05:52:24 40° WNW 05:55:50 10° N
Cosmos 2151 Rocket 3.7 05:51:35 10° NNW 05:55:56 54° W 06:00:17 10° S
Cosmos 2084 Rocket 3.7 05:58:41 10° WSW 06:02:50 45° NW 06:06:55 10° NNE
SL-08 RB Rocket 4.4 05:59:05 10° N 06:03:09 32° WNW 06:07:13 10° SW
BREEZE-M DEB (TANK) 4.2 05:59:20 13° WNW 06:03:21 26° NNW 06:05:42 10° NE
Cosmos 1484 Rocket 4.0 06:01:05 10° NNW 06:03:25 17° WNW 06:05:04 13° W
Cosmos 1606 3.5 06:00:52 10° N 06:04:09 47° E 06:07:24 10° SSE
Okean 1 Rocket 3.0 05:59:52 10° N 06:04:21 77° W 06:08:46 10° S
SL-16 R/B 2.2 05:58:53 10° SW 06:04:28 61° WNW 06:10:06 10° NNE
Gbstr 26 Del rocket 3.9 06:04:38 13° W 06:08:28 42° NNW 06:13:48 10° NE
SKYMED 2 4.1 06:06:37 10° SSW 06:10:36 36° W 06:14:38 10° NNW
Cosmos 304 Rocket 4.5 06:06:25 10° NW 06:10:37 32° W 06:14:48 10° SSW
NOSS 2-1 (E) 3.8 06:07:17 10° NW 06:11:22 85° SW 06:17:09 10° SSE
EXPRESS MD2 2.9 06:08:34 10° WSW 06:12:11 47° NNW 06:14:36 10° NE
CZ-2D R/B 3.0 06:10:01 10° NNE 06:13:33 89° W 06:17:04 10° SSW
ADEOS Rocket 3.7 06:10:33 10° NNE 06:17:43 72° ESE 06:24:06 10° S
USA 229 DEB 4.3 06:10:54 10° NW 06:18:19 54° WSW 06:26:14 10° S
USA 229 4.3 06:11:02 10° NW 06:18:26 54° WSW 06:26:20 10° SSE
CZ-2D R/B 3.6 06:15:15 10° NNE 06:19:12 74° ESE 06:23:12 10° S
SJ-12 3.8 06:17:52 10° N 06:21:47 63° WNW 06:25:39 10° SSW
DELTA 2 R/B (1) 3.9 06:16:45 10° W 06:22:15 61° SSW 06:27:43 10° ESE
Cosmos 2333 Rocket 2.2 06:24:38 10° SSW 06:30:20 77° WNW 06:36:03 10° NNE
USA 215 3.3 06:24:11 10° NE 06:30:40 68° NW 06:37:08 10° WSW
